Find Starlink 5169

NORAD ID: 54060 Int'l Des: 2022-136 Owner: SPXS Country: US Constellation: starlink operational
LEOCIRCULAR

Current View

Loading 3D Globe...

About Starlink 5169

Starlink 5169 (NORAD 54060) is a starlink constellation satellite (v1.5) launched Oct 20, 2022 by SPXS of US. It operates in LEO, CIRCULAR orbit with a mass of 305.00 kg.

About Starlink 5169

Description loading...

Upcoming Passes

Passes for default location (London). Set your location on the main map for personalized predictions.

Altitude History

Loading altitude history...

Two-Line Element Set

1 54060U 22136K 26170.13049644 .00000489 00000-0 48825-4 0 9998
2 54060 53.1594 218.2843 0001139 85.2618 274.8503 15.08835332202580
Epoch: Jun 19, 2026 • Age: 11 hours

Current Status

Altitude 540.3 km
Velocity 7.60 km/s
Sub-Earth Point 25.30°N, 112.94°E
Launch Date Oct 20, 2022
Age 3.6 years
Type internet

Technical Details

Classification Payload
Mass 305.00 kg
Dry Mass 290.00 kg
Total Mass 305.00 kg
Length 0.20 m
Diameter 2.80 m
Span 9.00 m
Shape Box + pan
Manufacturer SPXS
Bus Type Starlink
Phase Status In Orbit
Owner/State SPXS/US

Most Searched